x

Ilm2 - 5 Miles Se Of Wrightsville Beach, Nc (41038) Weather Station

8:08 - Tue 30th Jun 2015 All times are EDT. -4 hours from GMT.

  • Wind
    25mph, 31mph gusts
  • Sea Temp 79°f
  • Aire Temp 82°f
  • Sea Pressure 1013.8mb
  • Ilm2 - 5 Miles Se Of Wrightsville Beach, Nc
  • Ilm2 - 5 Miles Se Of Wrightsville Beach, Nc

More Historic Weather Station data

Upgrade to MSW Pro to gain access to the past 30 days of data for over 8000 Wavebouys and Weather Stations around the globe.

Join Pro

Comparision Forecast

View Surf forecast
   
mar 06/30 8:08 25 31 mph 1013.8mb 79f 82f
7:53 22 29 mph 1013.9mb 79f 82f
7:38 22 29 mph 1014mb 79f 82f
6:08 20 27 mph 1013.9mb 80f 81f
5:53 20 27 mph 1013.9mb 80f 81f
5:38 18 25 mph 1013.8mb 80f 81f
5:23 20 25 mph 1013.7mb 80f 81f
5:08 20 25 mph 1013.5mb 80f 81f
4:53 20 25 mph 1013.4mb 80f 81f
4:38 18 25 mph 1013.5mb 80f 81f
4:23 18 25 mph 1013.7mb 80f 81f
4:08 20 25 mph 1013.8mb 80f 81f
3:53 20 27 mph 1013.8mb 80f 81f
3:38 18 25 mph 1014.2mb 80f 81f
3:23 20 27 mph 1014.2mb 80f 81f
3:08 18 25 mph 1014.4mb 80f 81f
2:53 18 22 mph 1014.5mb 80f 81f
2:38 16 22 mph 1014.6mb 80f 81f
2:23 16 22 mph 1014.8mb 80f 81f
2:08 16 22 mph 1015mb 80f 81f
1:53 16 20 mph 1015.1mb 80f 81f
1:38 13 20 mph 1015.3mb 80f 81f
1:23 13 18 mph 1015.5mb 80f 81f
1:08 13 20 mph 1015.7mb 80f 81f
12:53 13 18 mph 1015.8mb 80f 81f
12:38 11 16 mph 1015.9mb 80f 81f
12:23 11 16 mph 1016mb 80f 81f
12:08 11 13 mph 1015.9mb 80f 81f
11:08 7 9 mph 1016.2mb 80f 81f
10:53 7 9 mph 1016.3mb 79f 81f
10:38 7 9 mph 1016.3mb 79f 81f
10:23 7 9 mph 1016.3mb 79f 81f
10:08 7 9 mph 1016.3mb 79f 80f
9:53 7 11 mph 1016.3mb 79f 80f
9:38 9 13 mph 1016.2mb 79f 80f
9:23 9 11 mph 1016.3mb 79f 80f
9:08 9 13 mph 1016.2mb 79f 79f
8:53 11 13 mph 1016.1mb 79f 79f
8:38 11 16 mph 1016mb 79f 79f
8:23 11 16 mph 1015.9mb 79f 79f
8:08 13 18 mph 1015.6mb 79f 79f
7:53 13 18 mph 1015.4mb 79f 79f
7:38 13 18 mph 1015.3mb 79f 79f
7:23 13 18 mph 1015.2mb 79f 79f
7:08 13 18 mph 1015.1mb 79f 79f
6:53 16 18 mph 1015.1mb 79f 79f
6:38 13 18 mph 1015.1mb 79f 79f
6:23 13 18 mph 1015.1mb 79f 79f
6:08 13 18 mph 1014.9mb 79f 79f
5:53 13 18 mph 1014.7mb 79f 79f
5:38 11 16 mph 1014.6mb 79f 79f
5:23 13 18 mph 1014.4mb 79f 79f
5:08 13 18 mph 1014.5mb 79f 79f
4:53 13 16 mph 1014.5mb 79f 79f
4:38 13 18 mph 1014.3mb 79f 79f
4:23 13 18 mph 1014.2mb 79f 79f
4:08 13 18 mph 1014.3mb 79f 79f
3:53 13 20 mph 1014.2mb 79f 79f
3:38 13 18 mph 1014.1mb 79f 79f
3:23 13 18 mph 1014mb 79f 79f
3:08 13 18 mph 1014mb 79f 79f
2:53 16 18 mph 1014mb 79f 79f
2:38 16 20 mph 1014mb 79f 80f
2:23 16 20 mph 1014.1mb 79f 80f
2:08 13 20 mph 1014.2mb 79f 80f
1:08 13 18 mph 1014.9mb 79f 80f
12:53 13 20 mph 1015.2mb 79f 80f
12:38 13 20 mph 1015.2mb 79f 80f
12:23 13 18 mph 1015.3mb 79f 80f
12:08 13 18 mph 1015.4mb 79f 80f
lun 06/29 11:53 13 18 mph 1015.2mb 79f 80f
11:38 13 18 mph 1015.2mb 79f 80f
11:23 13 18 mph 1015.1mb 79f 80f
11:08 16 18 mph 1015mb 79f 80f
10:53 16 20 mph 1015.1mb 79f 80f
10:38 16 22 mph 1014.9mb 79f 80f
10:23 16 22 mph 1014.9mb 79f 80f
10:08 16 22 mph 1014.8mb 79f 80f
9:53 18 22 mph 1014.7mb 79f 81f
9:38 18 25 mph 1014.6mb 79f 81f
9:23 16 20 mph 1014.5mb 79f 81f
9:08 16 20 mph 1014.3mb 79f 81f
8:53 13 20 mph 1014.2mb 79f 81f
8:38 16 20 mph 1014mb 80f 81f
8:23 13 18 mph 1013.9mb 80f 81f
8:08 13 20 mph 1014.1mb 80f 81f
7:53 13 20 mph 1014.1mb 80f 81f
7:38 16 20 mph 1014.2mb 79f 81f
7:23 13 18 mph 1014.1mb 80f 81f
7:08 13 18 mph 1014.1mb 80f 81f
6:53 13 18 mph 1013.9mb 80f 81f
6:38 13 18 mph 1013.9mb 80f 80f
6:23 13 16 mph 1013.9mb 80f 81f
6:08 13 18 mph 1013.7mb 80f 81f
5:53 11 16 mph 1013.6mb 80f 80f
5:38 9 13 mph 1013.7mb 80f 80f
5:23 9 13 mph 1013.8mb 80f 80f
5:08 9 11 mph 1013.7mb 80f 80f
4:53 9 13 mph 1013.7mb 80f 80f
4:38 9 11 mph 1013.7mb 80f 80f
4:23 7 11 mph 1014.2mb 80f 80f
4:08 7 11 mph 1014.2mb 80f 80f
3:53 9 11 mph 1014.4mb 80f 79f
3:38 9 13 mph 1014.3mb 80f 79f
3:23 9 13 mph 1014.4mb 80f 79f
3:08 9 13 mph 1014.2mb 80f 79f
2:53 7 11 mph 1014.4mb 80f 79f
2:38 7 11 mph 1014.6mb 80f 79f
2:23 7 11 mph 1014.8mb 80f 79f
2:08 9 11 mph 1014.7mb 80f 78f
1:53 9 11 mph 1014.8mb 80f 78f
1:38 7 11 mph 1015.1mb 80f 79f
1:23 9 11 mph 1015.1mb 80f 78f
1:08 7 11 mph 1015.2mb 80f 78f
12:53 7 9 mph 1015.3mb 80f 78f
12:38 7 9 mph 1015.4mb 79f 78f
12:23 7 11 mph 1015.5mb 79f 77f
12:08 9 11 mph 1015.5mb 79f 77f
11:53 9 11 mph 1015.5mb 79f 77f
11:38 7 9 mph 1015.5mb 79f 78f
11:23 7 11 mph 1015.4mb 79f 77f
11:08 9 13 mph 1015.3mb 79f 77f
10:53 7 11 mph 1015.3mb 79f 77f
10:38 7 11 mph 1015.3mb 79f 77f
10:23 9 11 mph 1015.1mb 79f 77f
10:08 7 11 mph 1015.1mb 79f 77f
9:53 9 11 mph 1014.9mb 79f 78f
9:38 9 13 mph 1014.8mb 79f 77f
9:23 11 16 mph 1014.9mb 79f 77f
9:08 11 16 mph 1014.8mb 79f 76f
8:53 9 13 mph 1014.8mb 79f 77f
8:38 7 11 mph 1014.7mb 79f 78f
8:23 4 7 mph 1014.7mb 79f 77f
8:08 4 7 mph 1014.5mb 79f 77f
7:53 4 7 mph 1014.1mb 79f 77f
6:53 4 7 mph 1014.1mb 79f 77f
6:08 4 9 mph 1013.5mb 79f 77f
5:53 4 7 mph 1013.4mb 79f 77f
5:38 4 9 mph 1013.3mb 79f 77f
5:23 4 9 mph 1013.1mb 79f 78f
5:08 4 9 mph 1013.2mb 79f 78f
4:53 4 9 mph 1013.3mb 79f 78f
4:08 7 9 mph 1013.1mb 79f 78f
3:53 7 11 mph 1013.2mb 79f 78f
3:38 7 11 mph 1013mb 79f 78f
3:23 9 13 mph 1012.9mb 79f 79f
3:08 11 13 mph 1012.9mb 79f 79f
2:53 11 16 mph 1013.1mb 79f 79f
2:38 11 16 mph 1013.3mb 79f 79f
2:23 13 18 mph 1013.4mb 79f 79f
2:08 13 18 mph 1013.4mb 79f 80f
1:53 11 16 mph 1013.5mb 79f 79f
1:38 9 16 mph 1013.6mb 79f 79f
1:23 9 13 mph 1013.5mb 79f 79f
1:08 11 16 mph 1013.6mb 79f 79f
12:53 11 16 mph 1013.4mb 79f 80f
12:38 13 16 mph 1013.4mb 79f 80f
12:23 11 16 mph 1013.4mb 79f 79f
12:08 13 16 mph 1013.5mb 79f 80f
dom 06/28 11:53 11 16 mph 1013.5mb 79f 79f
11:38 11 13 mph 1013.6mb 79f 79f
11:23 11 13 mph 1013.7mb 79f 79f
11:08 11 13 mph 1013.7mb 79f 79f
10:53 9 13 mph 1013.8mb 79f 79f
10:38 9 13 mph 1013.6mb 79f 79f
10:23 9 13 mph 1013.6mb 79f 79f
10:08 11 16 mph 1013.5mb 79f 79f
9:53 11 16 mph 1013.4mb 79f 79f
9:38 11 16 mph 1013.3mb 79f 79f
9:23 11 18 mph 1013.1mb 79f 79f
9:08 13 18 mph 1012.9mb 79f 79f
8:53 13 20 mph 1012.9mb 79f 80f
8:38 16 20 mph 1012.7mb 79f 80f
8:23 13 18 mph 1012.6mb 79f 80f
8:08 11 18 mph 1012.5mb 79f 80f
7:53 16 20 mph 1012.4mb 79f 80f
7:38 16 20 mph 1012.8mb 79f 80f
7:23 18 22 mph 1012.6mb 79f 80f
7:08 18 25 mph 1012.4mb 79f 80f
6:53 16 20 mph 1012mb 79f 80f
6:08 18 25 mph 1011.6mb 79f 80f
5:53 18 25 mph 1011.1mb 79f 80f
5:38 18 25 mph 1011.1mb 79f 80f
5:23 18 25 mph 1011.1mb 79f 80f
5:08 20 27 mph 1011.2mb 79f 80f
4:53 18 25 mph 1011.2mb 79f 81f
4:38 18 25 mph 1011.4mb 79f 80f
4:23 18 22 mph 1011.2mb 79f 80f
4:08 16 22 mph 1011.2mb 79f 81f
3:53 18 25 mph 1011.1mb 79f 81f
3:38 16 22 mph 1011.2mb 79f 81f
3:23 18 22 mph 1011.2mb 79f 81f
3:08 13 20 mph 1011.1mb 79f 81f
2:53 13 20 mph 1011.2mb 79f 81f
2:38 18 22 mph 1011.3mb 79f 81f
2:23 16 22 mph 1011.4mb 79f 81f
2:08 13 18 mph 1011.8mb 80f 81f
1:53 9 13 mph 1011.8mb 79f 82f
1:38 7 11 mph 1011.9mb 79f 82f
1:23 9 11 mph 1012mb 79f 81f
1:08 7 11 mph 1012mb 79f 81f
12:53 7 11 mph 1012.1mb 79f 81f
12:38 7 9 mph 1012.1mb 79f 81f
12:23 7 11 mph 1012.1mb 79f 81f
12:08 9 11 mph 1012.2mb 79f 80f
11:53 9 11 mph 1012.2mb 79f 80f
11:38 11 13 mph 1012.3mb 79f 80f
11:23 9 13 mph 1012.1mb 79f 80f
11:08 9 13 mph 1012.1mb 79f 79f
10:53 11 16 mph 1012.2mb 79f 79f
10:38 11 18 mph 1012mb 79f 79f
10:23 13 20 mph 1012.1mb 79f 79f
10:08 16 20 mph 1012.1mb 78f 79f
9:53 16 20 mph 1012mb 78f 78f
9:38 16 20 mph 1012mb 78f 78f
9:23 16 20 mph 1012mb 78f 78f
9:08 16 22 mph 1012mb 78f 78f
8:53 16 22 mph 1011.9mb 78f 78f
8:38 18 22 mph 1011.6mb 78f 78f
8:23 18 27 mph 1011.2mb 78f 78f
8:08 18 25 mph 1011.1mb 78f 78f
7:53 22 31 mph 1010.9mb 78f 78f
7:38 22 29 mph 1010.6mb 78f 79f
7:23 20 27 mph 1010.5mb 78f 79f
7:08 20 27 mph 1010.3mb 78f 80f
6:53 20 27 mph 1010.1mb 78f 80f
6:38 18 27 mph 1009.9mb 78f 79f
6:23 16 20 mph 1009.9mb 78f 80f
6:08 16 20 mph 1009.8mb 79f 79f
5:53 16 20 mph 1009.9mb 79f 80f
5:08 18 25 mph 1009.3mb 79f 80f
4:53 18 22 mph 1009.2mb 79f 80f
4:38 18 25 mph 1009.1mb 79f 80f
4:23 20 27 mph 1009mb 79f 80f
4:08 18 25 mph 1009mb 79f 80f
3:53 20 27 mph 1008.8mb 78f 81f
3:38 20 25 mph 1008.7mb 78f 80f
3:23 20 27 mph 1008.8mb 78f 80f
3:08 20 27 mph 1008.9mb 78f 80f
2:53 22 29 mph 1008.7mb 78f 80f
2:38 22 27 mph 1008.8mb 78f 80f
2:23 22 31 mph 1008.6mb 78f 80f
2:08 20 27 mph 1008.7mb 78f 80f
1:53 20 25 mph 1009mb 78f 80f
1:38 22 29 mph 1009mb 78f 80f
1:23 18 27 mph 1009mb 78f 80f
1:08 16 20 mph 1009.6mb 78f 79f
12:53 16 22 mph 1009.8mb 78f 79f
12:38 16 22 mph 1009.9mb 78f 78f
12:23 13 18 mph 1010.5mb 78f 77f
12:08 11 16 mph 1010.8mb 78f 76f
sáb 06/27 11:53 13 20 mph 1011.3mb 78f 76f
11:38 22 29 mph 1011.4mb 78f 75f
11:23 22 29 mph 1011.7mb 78f 76f
11:08 20 29 mph 1011.6mb 78f 81f
10:53 22 29 mph 1011.5mb 78f 81f
10:38 25 34 mph 1011.4mb 78f 81f
10:23 25 36 mph 1011.1mb 78f 81f
10:08 27 34 mph 1010.8mb 78f 81f
9:53 27 36 mph 1010.5mb 79f 81f
8:53 25 34 mph 1009.9mb 79f 81f
8:08 25 34 mph 1009.8mb 79f 81f
7:53 27 36 mph 1010mb 79f 81f
7:38 27 36 mph 1009.8mb 79f 81f
7:23 27 34 mph 1009.6mb 79f 81f
7:08 25 31 mph 1009.5mb 80f 81f
6:53 25 31 mph 1009.1mb 80f 81f
6:38 25 34 mph 1008.9mb 80f 81f
6:23 27 34 mph 1009.1mb 80f 81f
6:08 27 36 mph 1009.1mb 80f 81f
5:53 25 31 mph 1009mb 80f 81f
5:38 25 34 mph 1009.3mb 80f 81f
5:23 27 34 mph 1009.5mb 80f 81f
5:08 25 34 mph 1009.4mb 80f 81f
4:53 27 36 mph 1009.4mb 80f 81f
4:38 25 34 mph 1009.6mb 80f 81f
4:23 25 31 mph 1010.1mb 80f 81f
4:08 25 31 mph 1010mb 80f 81f
3:53 25 31 mph 1010mb 80f 81f
3:38 22 29 mph 1010.5mb 81f 81f
3:23 22 29 mph 1010.4mb 81f 81f
3:08 22 27 mph 1010.6mb 81f 81f
2:53 22 29 mph 1010.7mb 81f 81f
2:38 22 29 mph 1010.9mb 81f 81f
2:23 20 27 mph 1011mb 81f 81f
2:08 20 27 mph 1011.3mb 81f 81f
1:53 20 27 mph 1011.5mb 81f 81f
1:38 20 27 mph 1011.7mb 81f 81f
1:23 20 27 mph 1012.1mb 81f 81f
1:08 20 27 mph 1012.2mb 81f 81f
12:53 20 25 mph 1012.5mb 81f 81f
12:38 20 25 mph 1012.4mb 81f 81f
12:23 16 22 mph 1012.7mb 81f 81f
12:08 16 20 mph 1012.6mb 81f 81f
11:53 16 20 mph 1012.9mb 81f 81f
11:38 13 20 mph 1013mb 81f 81f
11:23 13 18 mph 1013.3mb 81f 81f
11:08 13 20 mph 1013.3mb 81f 82f
10:53 13 18 mph 1013.5mb 81f 82f
10:38 13 20 mph 1013.4mb 81f 82f
10:23 13 18 mph 1013.6mb 81f 82f
10:08 13 18 mph 1013.8mb 81f 82f
9:53 13 18 mph 1013.9mb 81f 82f
9:38 13 18 mph 1014mb 80f 82f
9:23 13 20 mph 1014.1mb 80f 82f
9:08 13 20 mph 1014.2mb 80f 82f
8:53 13 18 mph 1014mb 80f 82f
8:38 13 18 mph 1013.9mb 80f 82f
8:23 11 16 mph 1013.8mb 80f 82f
8:08 13 18 mph 1013.7mb 80f 81f
7:53 11 16 mph 1013.8mb 80f 81f
7:38 9 13 mph 1013.9mb 80f 81f
7:23 9 13 mph 1013.9mb 80f 81f
7:08 13 16 mph 1013.9mb 80f 81f
6:53 13 18 mph 1013.7mb 80f 81f
6:38 13 18 mph 1013.8mb 80f 81f
6:23 13 18 mph 1013.6mb 80f 81f
6:08 11 16 mph 1013.5mb 80f 81f
5:53 13 18 mph 1013.5mb 80f 81f
5:38 11 16 mph 1013.3mb 80f 81f
5:23 11 13 mph 1013.3mb 80f 81f
5:08 9 16 mph 1013.3mb 80f 81f
4:53 7 11 mph 1013.3mb 80f 80f
4:38 4 9 mph 1013.2mb 80f 80f
4:23 4 9 mph 1013.3mb 80f 80f
4:08 4 9 mph 1013.2mb 80f 79f
3:53 7 9 mph 1013.3mb 80f 79f
3:38 7 9 mph 1013.3mb 80f 79f
3:23 7 9 mph 1013.5mb 80f 79f
3:08 4 9 mph 1013.3mb 80f 79f
2:53 4 9 mph 1013.5mb 80f 79f
2:38 7 9 mph 1013.5mb 80f 79f
2:23 7 9 mph 1013.7mb 80f 79f
2:08 9 16 mph 1013.7mb 80f 79f
1:53 11 13 mph 1013.8mb 80f 81f
1:38 13 18 mph 1014.1mb 80f 82f